GSAT0218 (GALILEO 22) (43058 NORAD) Tracking and Keplerian Element Data

This shows tracking and keplerian element data for the satellite.

Feedback or suggestion? Click here.




ElementValue
Catalog43058
NameGSAT0218 (GALILEO 22)
Epoch Orbit1935
Epoch Day20.89486324
Epoch Year2021
RAAN275.8245
Inclination56.1036
Eccentricity0.0002686
Argument of Perigee325.6749
Mean Anonmoly34.3731
Mean Motion1.70473348
Decay Rate-7E-08
L11 43058U 17079D 21020.89486324 -.00000007 00000-0 00000+0 0 9990
L22 43058 56.1036 275.8245 0002686 325.6749 34.3731 1.70473348 19350

Live tracking and technical data element details for GSAT0218 (GALILEO 22) (NORAD 43058). GSAT0218 (GALILEO 22) can be tracked NOW for your location showing map with azimuth and elevation plus other details from your city location.

Track the satellite on the map from your city or location and see movement details for azimuth, elevation, latitude, longitude, range, height, and movement on the map or in text.







IsCatalogInMostPopularTable: catalog: 43058, numindb: 547
Update: records affected: 1



GetName: 43058 GSAT0218 (GALILEO 22)

Hit Count: updated at: Sat, 23 Jan 2021 03:56:08 GMT